Regional Weather Roundup
Issued by NWS Cleveland, OH

Current Version | Previous Version | Text Only | Print | Product List | Glossary On
Versions: 1 2 3 4 5 6 7 8 9 10 11 12 13 14 15 16 17 18 19 20 21 22 23 24 25 26 27 28 29 30 31 32 33 34 35 36 37 38 39 40 41 42 43 44 45 46 47 48 49 50
000 ASUS41 KCLE 301010 RWRCLE OHIO REGIONAL WEATHER ROUNDUP NATIONAL WEATHER SERVICE CLEVELAND, OH 600 AM EDT MON MAR 30 2015 NOTE: "FAIR" INDICATES FEW OR NO CLOUDS BELOW 12,000 FEET WITH NO SIGNIFICANT WEATHER AND/OR OBSTRUCTIONS TO VISIBILITY. OHZ001>008-015>018-024>027-034-035-043-044-301100- NORTHWEST OHIO CITY SKY/WX TMP DP RH WIND PRES REMARKS DEFIANCE CLEAR 39 29 67 W8 29.92R FINDLAY CLEAR 37 31 78 W12 29.89R TOLEDO EXPRESS CLEAR 38 30 73 W12 29.87R TOLEDO EXEC CLEAR 39 30 70 W14 29.87R LIMA CLEAR 39 30 70 W14 29.91R $$ OHZ009>014-019>023-028>033-038-089-301100- NORTHEAST OHIO CITY SKY/WX TMP DP RH WIND PRES REMARKS CLE-HOPKINS CLOUDY 41 31 67 W18G25 29.86R CLE-LAKEFRONT CLOUDY 38 31 76 W20 29.83R CUY CO. ARPT NOT AVBL LORAIN-ELYRIA MOCLDY 39 31 72 NW14 29.85R ASHTABULA CLOUDY 40 31 70 W20G25 29.80R AKRON-CANTON CLOUDY 41 32 70 W15 29.84R WOOSTER CLOUDY 39 31 72 W10 29.86R MANSFIELD MOCLDY 39 31 72 W10 29.86R YOUNGSTOWN CLOUDY 40 33 76 W9 29.80R $$ OHZ042-051>053-060>062-070>072-077>081-301100- SOUTHWEST OHIO CITY SKY/WX TMP DP RH WIND PRES REMARKS CINC-COVINGTON CLEAR 40 33 76 W5 29.99R CINC-LUNKEN CLEAR 43 33 68 W5 30.01R HAMILTON CLEAR 35 33 92 NW3 30.00R DAYTON PTCLDY 38 33 82 W9 29.96R WRIGHT-PAT AFB CLEAR 40 34 80 W7 29.96R DAYTON GENERAL CLEAR 41 33 73 W5 29.96R WILMINGTON CLEAR 40 32 73 W8 29.96R $$ OHZ036-037-039>041-045>050-054>059-063>069-073>076-082>088-301100- CENTRAL AND SOUTHEAST OHIO CITY SKY/WX TMP DP RH WIND PRES REMARKS COLUMBUS PTCLDY 40 35 83 W9 29.92R OSU AIRPORT PTCLDY 41 34 76 W10 29.92R BOLTON FIELD CLEAR N/A N/A N/A W9 29.94R RICKENBACK AFB CLEAR 41 35 79 W13 29.93R NEWARK CLEAR 41 32 70 NW7 29.91R MARION CLEAR 39 32 76 W12 29.90R LANCASTER PTCLDY 44 36 73 W6 29.93R ZANESVILLE CLOUDY 42 32 67 W8 29.91R NEW PHILLY CLOUDY 44 32 62 W9G23 29.89R $$

USA.gov is the U.S. government's official web portal to all federal, state and local government web resources and services.